Flag for Brazil Weather past 2 weeks in Parnaíba, Piauí, Brazil

Now
77 °F

Overcast.


Feels Like: 78 °F
Forecast: 77 / 91 °F
Wind: No wind

Location: Teresina Aeroporto

Current Time: Jul 5, 2015 at 6:58:09 AM

Latest Report: Jul 5, 2015 at 6:00 AM


Visibility: N/A

Pressure: 29.89 "Hg

Humidity: 100%

Dew point: 77 °F

Location of ParnaíbaLocation

Historic Weather in Parnaíba — Graph

°F

Parnaíba temperature yesterday

Maximum temperature yesterday: 91 °F (at 1:00 PM)
Minimum temperature yesterday: 75 °F (at 4:00 AM)
Average temperature yesterday: 82 °F

Past Weeks' High & Low Weather Summary

 TemperatureHumidityPressure
High95 °F (Jun 21, 3:00 PM)100% (Jun 22, 5:00 AM)30.07 "Hg (Jun 22, 5:00 AM)
Low72 °F (Jun 27, 6:00 AM)36% (Jun 26, 5:00 PM)29.77 "Hg (Jul 2, 12:00 AM)
Average82 °F76%29.95 "Hg
* Reported Jun 20 6:00 AM — Jul 5 6:00 AM, Parnaíba, Weather by CustomWeather, © 2015

Note: Actual official high and low records may vary slightly from our data, if they occured in-between our weather recording intervals... More about our weather records

Advertising

Parnaíba weather history for previous 24 hours

 ConditionsComfort  
Time TempWeatherWind HumidityBarometerVisibility
6:00 AM
Sun, Jul 5
77 °FOvercast.No wind100%29.89 "HgN/A
5:00 AM77 °FPartly cloudy.No wind100%29.89 "HgN/A
4:00 AM77 °FPartly cloudy.No wind100%29.89 "HgN/A
3:00 AM77 °FClear.No wind100%29.89 "Hg10 mi
2:00 AM77 °FClear.6 mph100%29.89 "Hg10 mi
1:00 AM79 °FClear.6 mph94%29.92 "Hg10 mi
12:00 AM79 °FClear.6 mph94%29.92 "Hg10 mi
11:00 PM
Sat, Jul 4
79 °FClear.6 mph89%29.89 "Hg10 mi
10:00 PM81 °FPassing clouds.7 mph94%29.89 "HgN/A
9:00 PM81 °FClear.5 mph94%29.86 "Hg10 mi
8:00 PM81 °FClear.5 mph94%29.86 "Hg10 mi
7:00 PM82 °FClear.2 mph89%29.83 "Hg10 mi
6:00 PM82 °FPassing clouds.3 mph84%29.83 "HgN/A
5:00 PM86 °FPassing clouds.6 mph79%29.83 "HgN/A
4:00 PM88 °FScattered clouds.7 mph75%29.83 "HgN/A
3:00 PM91 °FScattered clouds.5 mph59%29.83 "HgN/A
2:00 PM90 °FScattered clouds.5 mph59%29.86 "HgN/A
1:00 PM91 °FPartly sunny.6 mph59%29.89 "HgN/A
12:00 PM86 °FPartly sunny.6 mph70%29.92 "HgN/A
11:00 AM88 °FPartly sunny.6 mph70%29.95 "HgN/A
10:00 AM82 °FPartly sunny.6 mph84%29.95 "HgN/A
9:00 AM82 °FPartly sunny.3 mph84%29.98 "HgN/A
8:00 AM81 °FScattered clouds.No wind89%29.95 "HgN/A
7:00 AM77 °FSunny.No wind94%29.95 "Hg10 mi
6:00 AM75 °FScattered clouds.No wind100%29.92 "HgN/A
Weather by CustomWeather, © 2015

See weather overviewHow to use our weather pages